Simultaneous Nadir Overpasses (SNOs) Predictions

Prediction of SNOs between METOP-B and TERRA Satellite Orbit:

Table of predicted SNOs for the next 14.0 days since TLE Epoch: 6/18/2021
Index Date (METOP-B) Time (METOP-B) Lat,Lon (METOP-B) SZA (METOP-B ) Date (TERRA) Time (TERRA) Lat,Lon (TERRA) SZA (TERRA ) Distance(km) Time Diff (sec)
1 06/19/2021 11:58:54 81.26, 45.34 60.49 06/19/2021 11:59:37 81.26, 45.38 60.51 0.73 43
2 06/19/2021 12:49:34 -81.27,-146.82 119.45 06/19/2021 12:49:03 -81.28,-146.69 119.45 2.62 31
3 06/22/2021 07:33:18 81.25, 111.58 60.45 06/22/2021 07:33:50 81.25, 111.69 60.47 1.80 32
4 06/22/2021 08:23:57 -81.27, -80.17 119.44 06/22/2021 08:23:16 -81.27, -80.35 119.48 3.05 41
5 06/25/2021 03:07:40 81.26, 178.20 60.51 06/25/2021 03:08:01 81.26, 178.34 60.53 2.40 21
6 06/25/2021 03:58:20 -81.27, -13.92 119.43 06/25/2021 03:57:28 -81.26, -14.05 119.47 2.31 52
7 06/27/2021 22:42:04 81.25,-115.59 60.57 06/27/2021 22:42:14 81.25,-115.43 60.59 2.68 10
8 06/27/2021 23:32:43 -81.27, 52.70 119.31 06/27/2021 23:31:40 -81.27, 52.59 119.36 1.99 63
9 06/30/2021 17:25:48 -81.25, 143.25 119.33 06/30/2021 17:27:01 -81.24, 143.16 119.31 1.83 73
10 06/30/2021 18:16:27 81.26, -48.99 60.73 06/30/2021 18:16:26 81.26, -48.85 60.75 2.47 1



Historial Predications of SNOs between METOP-B and TERRA
